Terug naar catalogus

STARLINK-5470

ActiefCommunicatieVLEO
NORAD 54776·PAYLOAD·🇺🇸 United States

Gelanceerd Dec 17, 2022 vanaf Cape Canaveral Space Force Station

Loading…

Volgende Passages (komende 24 uur)

TLE

VersSource: CelesTrak SupGP

Epoch: Sep 14, 2026, 20:54 UTC

1 54776C 22175U   26257.87131944  .00808410  00000+0  55757-2 0  2573
2 54776  53.1587 259.9096 0001102  90.9758 206.0282 15.73505104    14

Volg STARLINK-5470 in realtime met AllMySat

Download on the App Store